User: anonymous   Login
Location: Unspecified
(0.0000°N, 0.0000°E)
Time: 10:59:42
(UTC+00:00)
Language:

STARLINK-33930 - Orbit

View from above orbital plane
View from above orbital plane
View from above satellite
View from above satellite

Ground track
Ground track

The orbit is defined by the following mean orbital elements,

1 63776U          26145.55139735 +.00000000 +00000-0 +41838-3 0 00005
2 63776  42.9991 338.7645 0001027 277.7894  82.2841 15.27591423    09
Epoch (UTC): 25 May 2026 13:14:00
Eccentricity: 0.0001027
inclination: 42.9991°
perigee height: 482 km
apogee height: 484 km
right ascension of ascending node: 338.7645°
argument of perigee: 277.7894°
revolutions per day: 15.27591423
mean anomaly at epoch: 82.2841°

The dashed part of the orbit path shows where the satellite is in the earth's shadow,  

DLR